Regional Weather Roundup
Issued by NWS

Home | Current Version | Previous Version | Graphics & Text | Print | Product List | Glossary On
Versions: 1 2 3 4 5 6 7 8 9 10 11 12 13 14 15 16 17 18 19 20 21 22 23 24 25 26 27 28 29 30 31 32 33 34 35 36 37 38 39 40 41 42 43 44 45 46 47 48 49 50
078
ASUS43 KMPX 200901
RWRMN
WEATHER ROUNDUP FOR MINNESOTA
NATIONAL WEATHER SERVICE TWIN CITIES/CHANHASSEN MN
300 AM CST MON FEB 20 2017


NOTE: "FAIR" INDICATES FEW OR NO CLOUDS BELOW 12,000 FEET WITH NO
SIGNIFICANT WEATHER AND/OR OBSTRUCTIONS TO VISIBILITY. N/A MEANS
CURRENT SKY AND/OR WEATHER CONDITIONS ARE NOT AVAILABLE.

MNZ060>063-068>070-201000-
   Twin Cities Metro

CITY           SKY/WX    TMP DP  RH WIND       PRES   REMARKS
TWIN CITIES    CLOUDY    50  41  71 SE12      29.85F
ST PAUL        CLOUDY    48  41  76 SE10      29.86F
CRYSTAL        CLOUDY    63  41  44 SE15      29.81F
BLAINE         CLOUDY    52  43  71 SE16G22   29.83F
LAKEVILLE      CLOUDY    43  41  93 E3        29.85F
EDEN PRAIRIE   CLOUDY    50  43  77 SE12      29.81F
SOUTH ST PAUL  CLOUDY    49  40  69 SE6       29.85F
LAKE ELMO      FAIR      52  43  71 SE10G17   29.87F
$$
MNZ001>005-007-008-013>017-022>024-027-028-201000-
   Northwest Minnesota

CITY           SKY/WX    TMP DP  RH WIND       PRES   REMARKS
BEMIDJI        CLOUDY    39  33  79 SE13      29.71F
HALLOCK        CLOUDY    39  37  93 SE14      29.59S
ROSEAU         PTCLDY    41  36  81 SE10      29.65F
WARROAD        CLOUDY    41  36  81 SE13      29.68F
THIEF RVR FALL CLOUDY    40  37  89 SE14      29.63F
CROOKSTON      CLOUDY    43  41  93 SE14      29.60F
FOSSTON        CLOUDY    45  41  87 SE12      29.64F
DETROIT LAKES  CLOUDY    45  43  93 SE10      29.66F
MOORHEAD       CLOUDY    52  48  87 SE20G31   29.60F
PARK RAPIDS    CLOUDY    45  39  79 SE14      29.70F
MAHNOMEN       PTSUNNY   49  45  84 S12G17    29.63F
$$
MNZ006-009>011-018-025>026-201000-
   North Central Minnesota

CITY           SKY/WX    TMP DP  RH WIND       PRES   REMARKS
BAUDETTE       MOCLDY    40  31  70 SE9       29.70F
FLAG ISLAND    CLEAR     39  30  70 SE8       29.69F
INTL FALLS     CLOUDY    41  31  67 SE14      29.77F
WASKISH        PTCLDY    45  36  70 SE14G22   29.71F
BIG FORK       PTCLDY    43  34  70 SE8G16    29.78F
LONGVILLE      CLOUDY    43  36  75 SE7       29.76F
GRAND RAPIDS   MOCLDY    40  33  76 SE7       29.82F
CRANE LAKE     CLOUDY    37  30  75 CALM      29.87F
ORR            PTCLDY    41  28  60 SE9G18    29.81F
COOK           PTCLDY    43  32  65 SE8       29.85F
WALKER         FAIR      41  34  76 SE6       29.74S
$$
MNZ012-019>021-037-201000-
   Northeast Minnesota

CITY           SKY/WX    TMP DP  RH WIND       PRES   REMARKS
DULUTH         PTCLDY    38  31  76 E16       29.90F
ELY            CLOUDY    39  30  70 SE8       29.90F
HIBBING        CLOUDY    39  31  72 SE13      29.84F
EVELETH        CLOUDY    43  29  58 SE8       29.87F
DULUTH HARBOR  PTCLDY    36  34  93 E15       29.95F
TWO HARBORS    CLOUDY    41  34  75 E9        29.93F
GRAND MARAIS     N/A     39  30  70 NE15      30.06R
G MARAIS ARPRT CLOUDY    34  25  69 E7        30.02F WCI  28
$$
MNZ029>031-032-039>041-046>048-054>057-064-201000-
   West Central Minnesota

CITY           SKY/WX    TMP DP  RH WIND       PRES   REMARKS
FERGUS FALLS   CLOUDY    52  46  82 SE10G16   29.68F
WHEATON        CLOUDY    50  46  87 SE18      29.65F
MORRIS         CLOUDY    48  46  93 SE10      29.68S
ALEXANDRIA     CLOUDY    49  46  90 SE13      29.71F
ELBOW LAKE     FAIR      50  47  91 E16       29.66F
WADENA         LGT RAIN  43  43 100 SE13      29.70F
GLENWOOD       CLOUDY    52  48  87 S14       29.72S
APPLETON       CLOUDY    54  46  76 SE12      29.68S
BENSON         MOCLDY    55  45  67 S15       29.72R
ORTONVILLE     CLOUDY    48  45  87 CALM      29.68R
WILLMAR        FAIR      50  46  87 S9        29.75S
$$
MNZ033>034-036-042>043-049>051-058-059-201000-
   Central Minnesota

CITY           SKY/WX    TMP DP  RH WIND       PRES   REMARKS
ST CLOUD       CLOUDY    49  43  80 SE8       29.77F
SAUK CENTRE    FAIR      47  45  90 SE8       29.74S
PAYNESVILLE    CLOUDY    50  45  81 S14       29.75S
AITKIN         CLOUDY    45  32  61 E6        29.78F
PINE RIVER     CLOUDY    39  34  81 SE8       29.80F
BRAINERD       LGT RAIN  44  36  73 SE6       29.79R
STAPLES        CLOUDY    46  41  81 S7        29.75R
LONG PRAIRIE   FAIR      45  43  93 E3        29.75S
LITTLE FALLS   MOCLDY    46  39  76 SE9       29.76F
LITCHFIELD     CLOUDY    52  46  82 SE7       29.76F
BUFFALO        CLOUDY    54  44  70 SE14      29.79F
MAPLE LAKE     CLOUDY    52  46  79 SE8       29.79F
HUTCHINSON     CLOUDY    51  46  86 SE8       29.78F
$$
MNZ037-044-045-052-053-201000-
   East Central Minnesota

CITY           SKY/WX    TMP DP  RH WIND       PRES   REMARKS
PRINCETON      CLOUDY    54  45  71 SE13      29.80F
MORA           CLOUDY    45  36  70 E5        29.83F
CAMBRIDGE      CLOUDY    54  41  62 SE8       29.80F
RUSH CITY      PTCLDY    48  37  66 SE10      29.84F
MOOSE LAKE     CLOUDY    34  32  93 NE7       29.85F WCI  28
HINCKLEY       FAIR      46  37  71 E8        29.83F
CLOQUET        PTCLDY    36  30  80 E8        29.89F
MCGREGOR       MOCLDY    37  34  87 SE13      29.83F
$$
MNZ071>073-080-081-089-090-097-098-201000-
   Southwest Minnesota

CITY           SKY/WX    TMP DP  RH WIND       PRES   REMARKS
MONTEVIDEO     CLOUDY    54  48  82 S10G20    29.72F
GRANITE FALLS  CLOUDY    54  50  85 SE14      29.74S
CANBY          CLOUDY    55  50  85 E9        29.69S
MARSHALL       CLOUDY    53  49  86 SE9       29.71R
REDWOOD FALLS  MOCLDY    51  46  83 S14       29.74S
OLIVIA         MOCLDY    52  46  82 S13       29.74R
PIPESTONE      CLOUDY    52  46  82 S15       29.72R
WINDOM         CLOUDY    52  46  82 S10       29.77S
WORTHINGTON    CLOUDY    51  49  92 S14       29.74F
JACKSON        CLOUDY    50  45  81 S14       29.78F
TRACY          CLOUDY    54  51  89 S13G21    29.72S
SLAYTON        CLOUDY    53  51  92 S16G24    29.74R
$$
MNZ065>067-074>077-082>085-091>093-201000-
   South Central Minnesota

CITY           SKY/WX    TMP DP  RH WIND       PRES   REMARKS
MANKATO          N/A     50  45  83 SE14      29.82F
NEW ULM        MOCLDY    52  45  76 S15       29.78F
ST JAMES       CLOUDY    50  45  81 SE13      29.81R
FAIRMONT       CLOUDY    49  45  86 S13       29.82R
GLENCOE        CLOUDY    54  49  83 S13G20    29.78F
FARIBAULT      MOCLDY    54  45  71 S10       29.86S
OWATONNA       MOCLDY    52  45  76 SE14      29.86S
WASECA         CLOUDY    46  43  87 SE14      29.86F
ALBERT LEA     MOCLDY    48  45  87 S10       29.87S
$$
MNZ078>079-086>088-094>096-201000-
   Southeast Minnesota

CITY           SKY/WX    TMP DP  RH WIND       PRES   REMARKS
ROCHESTER      CLOUDY    47  43  86 S15       29.89F
RED WING       CLOUDY    54  39  58 SE10      29.89F
STANTON        CLOUDY    53  43  70 S14G22    29.84S
WINONA         MOCLDY    46  37  71 CALM      29.95F
AUSTIN         CLOUDY    48  43  81 SE8       29.87F
PRESTON        CLOUDY    48  41  76 SE7       29.92F
$$
ABBREVIATIONS USED IN REMARKS
   TC - TEMPERATURES IN CELSIUS
  WCI - WIND CHILL INDEX
   HX - HEAT INDEX
  VSB - VISIBILITY
$$




USA.gov is the U.S. government's official web portal to all federal, state and local government web resources and services.